User: anonymous   Login
Location: Unspecified
(0.0000°N, 0.0000°E)
Time: 10:28:04
(UTC+02:00)
Language:

Iridium 4 Rocket - Orbit

View from above orbital plane
View from above orbital plane
View from above satellite
View from above satellite

Ground track
Ground track

The orbit data is extracted from the following two-line orbital elements,

1 24797U 97020F   15216.51242302  .00000371  00000-0  73225-4 0  9995
2 24797 086.8933 243.2693 0228546 073.2396 038.5787 14.43669381959448
Epoch (UTC): 04 August 2015 12:17:53
Eccentricity: 0.0228546
inclination: 86.8933°
perigee height: 583 km
apogee height: 909 km
right ascension of ascending node: 243.2693°
argument of perigee: 73.2396°
revolutions per day: 14.43669381
mean anomaly at epoch: 38.5787°
orbit number at epoch: 95944

The dashed part of the orbit path shows where the satellite is in the earth's shadow,  

DLR